Regional Weather Roundup
Issued by NWS

Home | Current Version | Previous Version | Graphics & Text | Print | Product List | Glossary On
Versions: 1 2 3 4 5 6 7 8 9 10 11 12 13 14 15 16 17 18 19 20 21 22 23 24 25 26 27 28 29 30 31 32 33 34 35 36 37 38 39 40 41 42 43 44 45 46 47 48 49 50
000
ASUS43 KIND 251409
RWRIN

WEATHER ROUNDUP FOR INDIANA
NATIONAL WEATHER SERVICE INDIANAPOLIS IN
1000 AM EDT SAT MAR 25 2017

NOTE: "FAIR" INDICATES FEW OR NO CLOUDS BELOW 12,000 FEET WITH NO
SIGNIFICANT WEATHER AND/OR OBSTRUCTIONS TO VISIBILITY.

* - STATION DOES NOT REPORT WEATHER SUCH AS PRECIPITATION OR FOG.

+ - STATION NOT QUALITY CONTROLLED BY THE NATIONAL WEATHER SERVICE.
    USE DATA WITH CAUTION...ESPECIALLY DEWPOINT AND RELATIVE
    HUMIDITY OBSERVATIONS.

INZ001>003-010>013-019-020-251500-
NORTHWEST INDIANA

CITY           SKY/WX    TMP DP  RH WIND       PRES   REMARKS
GARY /AIRPORT/ LGT RAIN  41  41 100 N6        30.04F FOG
KNOX *+        CLOUDY    48  41  76 E10       30.04F
LA PORTE +     LGT RAIN  49  49  99 E12       30.05F
MICHIGAN CITY+ RAIN      46  46 100 CALM      30.05F
MONTICELLO +   PTSUNNY   59  52  78 E3        30.00S
RENSSELAER +   CLOUDY    48  48 100 NE9       29.99F FOG
VALPARAISO     CLOUDY    50  50 100 E8        30.03F FOG

$$

LMZ046-743>745-251500-
SOUTHERN LAKE MICHIGAN

STATION/POSITION TIME  TEMP    WIND        PRES    WAVE
                       AIR SEA DIR/SP/G            HT
                 (UTC) (F)     (DEG/KT/KT) (MB)    (FT)
BURNS HARBOR     1340   40      50/  7/  8 1017.6F
MICHIGAN CITY    1340   39      40/  6/  6   N/A

$$

INZ004-005-014>016-021>024-251500-
NORTH CENTRAL INDIANA

CITY           SKY/WX    TMP DP  RH WIND       PRES   REMARKS
ELKHART        LGT RAIN  48  46  93 E7        30.08S
GOSHEN         CLOUDY    52  46  80 E8        30.08R
LOGANSPORT +   CLOUDY    61  54  77 SE6       30.03S
PERU/GRISSOM   CLOUDY    63  55  76 S13       30.01S
ROCHESTER +    CLOUDY    61  55  82 E3        30.05R
SOUTH BEND     HVY RAIN  48  47  96 NE9       30.07S FOG
WARSAW +       CLOUDY    55  52  88 E6        30.06R

$$

INZ006>009-017-018-025>027-251500-
NORTHEAST INDIANA

CITY           SKY/WX    TMP DP  RH WIND       PRES   REMARKS
ANGOLA *+      CLOUDY    48  46  93 E7        30.10S
AUBURN +       CLOUDY    55  50  82 NE10      30.10R
FORT WAYNE     CLOUDY    61  53  75 E6        30.08R
HUNTINGTON +   CLOUDY    61  52  71 CALM      30.06R
KENDALLVILLE + CLOUDY    54  50  86 E10       30.09R

$$

INZ028-029-035-036-043>045-051>053-251500-
WEST CENTRAL INDIANA

CITY           SKY/WX    TMP DP  RH WIND       PRES   REMARKS
CRAWFORDSVL +  CLOUDY    61  53  74 SE15      29.99S
GREENCASTLE +  CLOUDY    61  52  72 S16G23    30.02S
LAFAYETTE      CLOUDY    64  53  67 SE15G21   29.98S
TERRE HAUTE    CLOUDY    65  52  62 S15       29.97S

$$

INZ030>032-037>040-046>048-054>057-064-065-251500-
CENTRAL INDIANA

CITY           SKY/WX    TMP DP  RH WIND       PRES   REMARKS
ANDERSON       SUNNY     63  50  63 S17G23    30.07S
CP ATTERBURY + CLOUDY    64  50  59 S14       30.07S
COLUMBUS       PTSUNNY   63  50  63 S15G21    30.08R
FISHERS *+     CLOUDY    63  54  72 S12G21    30.05S
FRANKFORT +    CLOUDY    66  55  66 S12G20    30.02F
GREENWOOD *+   CLOUDY    64  52  65 S13       30.07R
INDIANAPOLIS   CLOUDY    65  52  62 S14       30.04R
-EAGLE CREEK   CLOUDY    63  51  65 SE8       30.04R
KOKOMO +       CLOUDY    62  53  72 S15       30.04S
MARION +       CLOUDY    63  51  64 S17       30.06R
MT COMFORT *+  CLOUDY    63  50  63 S12       30.06S
SHELBYVILLE    PTSUNNY   67  50  54 S17       30.07R
ZIONSVILLE +   CLOUDY    61  51  70 S13       30.04S

$$

INZ033-034-041-042-049-050-058-059-251500-
EAST CENTRAL INDIANA

CITY           SKY/WX    TMP DP  RH WIND       PRES   REMARKS
MUNCIE         CLOUDY    66  50  56 S16G24    30.07R
RICHMOND +     CLOUDY    59  50  72 S14       30.12S

$$

INZ060-061-067>069-081>083-085>088-251500-
SOUTHWEST INDIANA

CITY           SKY/WX    TMP DP  RH WIND       PRES   REMARKS
EVANSVILLE     CLOUDY    64  52  64 S6        30.02F
HUNTINGBURG *+ CLOUDY    66  54  65 S10       30.05S
WASHINGTON +   CLOUDY    63  51  63 CALM      30.02S

$$

INZ062-063-066-070>080-084-089>092-251500-
SOUTH CENTRAL AND SOUTHEAST INDIANA

CITY           SKY/WX    TMP DP  RH WIND       PRES   REMARKS
BEDFORD +      CLOUDY    63  48  59 SE10      30.06R
BLOOMINGTON    CLOUDY    64  50  60 S9        30.04S
MADISON *+     CLOUDY    63  46  55 S10       30.13S
SEYMOUR +      CLOUDY    64  50  59 S10       30.08R

$$





USA.gov is the U.S. government's official web portal to all federal, state and local government web resources and services.